[[{"header":{"parameterUnit":"m.s-1","parameterCategory":1,"la1":30.2991,"la2":30.254,"lo1":-89.0895,"lo2":-89.0444,"dy":0.0017,"dx":0.0017,"nx":28,"ny":28,"refTime":"2024-03-24T03:00:00:Z","depth":0,"parameterNumber":2,"parameterNumberName":"U-component_of_WINDS"},"data":[0,0,0,0,0,0,0,0,0,0,0,0,0,0,0,0,0,0,0,0,0,0,0,0,0,0,0,0,0,0,0,0,0,0,0,0,0,0,0,0,0,0,0,0,0,0,0,0,0,0,0,0,0,0,0,0,0,0,-6.9989,-6.9991,0,-7.0239,-7.0242,-7.0245,-7.0336,-7.0335,-7.0335,-7.0334,-7.0588,-7.0596,-7.0603,0,0,0,0,0,0,0,0,0,0,0,0,0,-6.9588,-6.9595,-6.9988,-6.9991,-6.9995,-7.0239,-7.0242,-7.0245,-7.0336,-7.0335,-7.0334,-7.0333,-7.0586,-7.0595,-7.0604,0,0,0,0,0,0,0,0,0,0,0,0,0,-6.9793,-6.9598,-6.9988,-7.0069,-7.0079,-7.0238,-7.0242,-7.0246,-7.0337,-7.0335,-7.0334,-7.0333,-7.0583,-7.0594,-7.0605,-7.07,0,0,-7.064,-7.0644,0,0,0,0,0,0,0,0,-6.9781,-6.9807,-7.0054,-7.0064,-7.0075,-7.0255,-7.0194,-7.0398,-7.0337,-7.0239,-7.0334,-7.0332,-7.0478,-7.0498,-7.0548,-7.0712,-7.0723,-7.0641,-7.0647,-7.0652,-7.0656,0,0,0,0,0,0,0,-6.9767,-6.9797,-7.0087,-7.0058,-7.0071,-7.0094,-7.0121,-7.0233,-7.0362,-7.0247,-7.0255,-7.0283,-7.0484,-7.0537,-7.0554,-7.0726,-7.064,-7.065,-7.0657,-7.0662,-7.0983,-7.0984,0,0,0,0,0,0,-6.9739,-6.9785,-7.008,-7.0095,-6.9922,-7.0102,-7.0133,-7.0199,-7.0362,-7.0385,-7.0284,-7.0286,-7.0518,-7.0541,-7.0564,-7.0686,-7.0652,-7.0663,-7.0669,-7.0981,-7.0983,-7.0985,0,0,0,0,0,0,-6.973,-6.9765,-7.0069,-6.9942,-6.9983,-7.011,-7.0183,-7.0204,-7.0257,-7.0389,-7.0413,-7.0314,-7.0518,-7.0548,-7.0666,-7.0696,-7.0668,-7.0678,-7.0979,-7.0981,-7.0984,-7.093,0,0,0,0,0,0,-6.9718,-6.9761,-6.9798,-6.9942,-6.9989,-7.0167,-7.0185,-7.021,-7.0277,-7.0282,-7.0424,-7.0446,-7.0519,-7.0648,-7.0677,-7.0711,-7.0687,-7.0977,-7.098,-7.0983,-7.093,-7.0931,-7.0931,0,0,0,0,0,-6.9704,-6.9772,-6.9799,-6.9834,-7.0038,-7.0169,-7.0195,-7.0279,-7.0279,-7.0317,-7.0403,-7.0441,-7.0689,-7.066,-7.0693,-7.073,-7.0975,-7.0979,-7.0983,-7.0929,-7.0931,-7.0931,0,0,0,0,0,0,-6.9627,-6.9792,-6.9824,-6.9942,-7.0041,-7.0184,-7.0235,-7.0277,-7.0377,-7.0378,-7.0477,-7.0508,-7.0618,-7.0687,-7.0652,-7.0832,-7.0834,-7.0845,-7.0782,-7.0785,-7.0785,-7.0766,-7.0697,0,0,0,0,0,-6.9624,-6.9716,-6.9856,-6.9946,-6.9994,-7.0106,-7.0166,-7.0222,-7.0328,-7.037,-7.0463,-7.0564,-7.0665,-7.0729,-7.0829,-7.0941,-7.0973,-7.0984,-7.0984,-7.0984,-7.0992,-7.1057,-7.1063,-7.0998,-7.0997,-7.0997,0,0,-6.9618,-6.972,-6.9772,-6.9933,-7.0016,-7.011,-7.014,-7.0237,-7.0307,-7.0384,-7.0501,-7.0574,-7.0694,-7.0809,-7.0865,-7.0869,-7.1018,-7.0989,-7.0988,-7.0996,-7.1061,-7.1067,-7.1073,-7.1,-7.1,-7.0999,0,0,-6.9655,-6.9742,-6.9826,-6.991,-7.0036,-7.011,-7.013,-7.0268,-7.0319,-7.0439,-7.0499,-7.0584,-7.0755,-7.0838,-7.0902,-7.0973,-7.1013,-7.1003,-7.1006,-7.1069,-7.1074,-7.1079,-7.1103,-7.1111,-7.1011,-7.1011,-7.1011,0,-6.9631,-6.9775,-6.9864,-6.9959,-7.0028,-7.0104,-7.019,-7.0267,-7.0418,-7.0464,-7.0468,-7.0685,-7.0771,-7.0907,-7.0925,-7.0975,-7.1001,-7.0986,-7.1066,-7.1072,-7.1078,-7.1102,-7.1112,-7.1008,-7.1009,-7.1009,-7.1009,0,-6.9739,-6.9838,-6.9891,-7.0037,-7.0113,-7.0202,-7.0306,-7.0372,-7.0422,-7.0496,-7.0617,-7.0723,-7.0846,-7.0883,-7.0932,-7.1027,-7.1026,-7.1047,-7.1051,-7.108,-7.1105,-7.1115,-7.1005,-7.1006,-7.1007,-7.1007,0,0,-6.9732,-6.9928,-6.9946,-7.0013,-7.0159,-7.0237,-7.0331,-7.0452,-7.0506,-7.061,-7.069,-7.0835,-7.0856,-7.0929,-7.0989,-7.1043,-7.1093,-7.1058,-7.1062,-7.106,-7.1203,-7.1185,-7.1195,-7.1121,-7.1123,-7.1125,-7.1193,0,-6.9787,-6.9958,-7.0043,-7.0177,-7.0269,-7.0344,-7.0426,-7.0524,-7.0596,-7.0685,-7.0765,-7.0866,-7.0886,-7.093,-7.0988,-7.1074,-7.1122,-7.1071,-7.1196,-7.12,-7.1162,-7.1208,-7.1189,-7.1248,-7.1203,-7.1205,-7.1206,0,-6.9874,-6.9977,-7.012,-7.0256,-7.0298,-7.037,-7.0489,-7.0573,-7.0687,-7.0736,-7.0818,-7.0877,-7.0979,-7.0978,-7.112,-7.1083,-7.114,-7.119,-7.1195,-7.1208,-7.1203,-7.1221,-7.1269,-7.1277,-7.1222,-7.1221,-7.122,0,-6.9853,-7.0028,-7.0137,-7.0192,-7.0354,-7.0403,-7.0472,-7.0585,-7.0653,-7.0757,-7.0802,-7.0916,-7.0978,-7.1065,-7.1154,-7.1145,-7.1287,-7.1293,-7.133,-7.1328,-7.1355,-7.1351,-7.141,-7.1394,-7.1394,-7.1393,-7.1393,0,-6.9904,-6.9989,-7.013,-7.0196,-7.0294,-7.0391,-7.0484,-7.056,-7.066,-7.0742,-7.0814,-7.089,-7.1003,-7.1094,-7.1164,-7.1271,-7.1298,-7.1341,-7.1358,-7.1333,-7.1328,-7.137,-7.1368,-7.1396,-7.1395,-7.1395,-7.1394,0,-6.9897,-6.9994,-7.0118,-7.0261,-7.03,-7.0365,-7.0488,-7.0556,-7.0632,-7.0736,-7.0766,-7.0887,-7.0997,-7.1095,-7.124,-7.1288,-7.1397,-7.1419,-7.1358,-7.1367,-7.1398,-7.1393,-7.1486,-7.1502,-7.1475,-7.1475,-7.1475,0,-6.9922,-6.9989,-7.014,-7.0201,-7.027,-7.0367,-7.0437,-7.0536,-7.0606,-7.0741,-7.0793,-7.0909,-7.1006,-7.1179,-7.128,-7.1392,-7.1417,-7.1441,-7.1434,-7.1407,-7.1416,-7.141,-7.1417,-7.144,-7.144,-7.144,-7.144,0,-6.9957,-7.0003,-7.0101,-7.0217,-7.0298,-7.0394,-7.0492,-7.0538,-7.0655,-7.073,-7.0845,-7.092,-7.107,-7.1184,-7.1308,-7.138,-7.1429,-7.1442,-7.1456,-7.143,-7.1392,-7.1413,-7.1356,-7.1438,-7.1439,-7.1439,-7.1439,-7.1439,-6.9967,-7.003,-7.0146,-7.0254,-7.0338,-7.0428,-7.0499,-7.0585,-7.0682,-7.0812,-7.0865,-7.0981,-7.1095,-7.1266,-7.1339,-7.1431,-7.144,-7.146,-7.1466,-7.1469,-7.1464,-7.1379,-7.1454,-7.1454,-7.1454,-7.1455,-7.1455,0,-7.0004,-7.0084,-7.0182,-7.0317,-7.0401,-7.0442,-7.0553,-7.0621,-7.0722,-7.0824,-7.0919,-7.1051,-7.1162,-7.1272,-7.139,-7.1443,-7.1468,-7.147,-7.1466,-7.1482,-7.145,-7.1425,-7.1448,-7.1447,-7.1447,-7.1447,-7.1447,-7.1447,-7.0034,-7.0143,-7.0202,-7.0354,-7.0433,-7.0548,-7.0607,-7.0691,-7.0773,-7.0917,-7.101,-7.1082,-7.1187,-7.1314,-7.1418,-7.1448,-7.1487,-7.1482,-7.1518,-7.1485,-7.1484,-7.1484,-7.1461,-7.149,-7.149,-7.1543,-7.1543,-7.1543]},{"header":{"parameterUnit":"m.s-1","parameterCategory":1,"la1":30.2991,"la2":30.254,"lo1":-89.0895,"lo2":-89.0444,"dy":0.0017,"dx":0.0017,"nx":28,"ny":28,"refTime":"2024-03-24T03:00:00:Z","depth":0,"parameterNumber":3,"parameterNumberName":"V-component_of_WINDS"},"data":[0,0,0,0,0,0,0,0,0,0,0,0,0,0,0,0,0,0,0,0,0,0,0,0,0,0,0,0,0,0,0,0,0,0,0,0,0,0,0,0,0,0,0,0,0,0,0,0,0,0,0,0,0,0,0,0,0,0,6.4939,6.494,0,6.5042,6.5043,6.5045,6.5051,6.505,6.5049,6.5048,6.515,6.5154,6.5158,0,0,0,0,0,0,0,0,0,0,0,0,0,6.4748,6.4752,6.4939,6.494,6.4942,6.5042,6.5043,6.5045,6.5051,6.505,6.5048,6.5047,6.5149,6.5153,6.5158,0,0,0,0,0,0,0,0,0,0,0,0,0,6.4839,6.4753,6.4939,6.4957,6.496,6.5042,6.5044,6.5045,6.5052,6.505,6.5048,6.5046,6.5147,6.5153,6.5159,6.5229,0,0,6.5176,6.5179,0,0,0,0,0,0,0,0,6.4834,6.4846,6.4953,6.4956,6.4959,6.5032,6.5014,6.5107,6.5052,6.5017,6.5048,6.5046,6.5112,6.5121,6.5144,6.5233,6.5238,6.5177,6.518,6.5183,6.5184,0,0,0,0,0,0,0,6.4828,6.4842,6.498,6.4955,6.4958,6.496,6.4971,6.5031,6.5073,6.502,6.502,6.5033,6.5113,6.5138,6.5146,6.5239,6.5176,6.5182,6.5185,6.5187,6.5396,6.5398,0,0,0,0,0,0,6.4818,6.4836,6.4977,6.4983,6.4891,6.4965,6.4977,6.501,6.5072,6.508,6.5034,6.5032,6.5129,6.5139,6.515,6.5239,6.5182,6.5188,6.5191,6.5394,6.5397,6.5399,0,0,0,0,0,0,6.4814,6.483,6.4972,6.491,6.4928,6.497,6.5007,6.5013,6.5038,6.5083,6.509,6.5052,6.5128,6.5142,6.521,6.5242,6.519,6.5196,6.5391,6.5395,6.5398,6.5415,0,0,0,0,0,0,6.4808,6.4829,6.4856,6.4911,6.4932,6.5031,6.5009,6.5017,6.5048,6.5047,6.5102,6.5109,6.5128,6.5202,6.5216,6.5249,6.52,6.5389,6.5393,6.5397,6.5412,6.5419,6.5425,0,0,0,0,0,6.4801,6.4855,6.4857,6.4874,6.4966,6.5033,6.5045,6.5067,6.5051,6.5079,6.5108,6.5107,6.5236,6.5209,6.5225,6.526,6.5387,6.5392,6.5396,6.5409,6.5418,6.5424,0,0,0,0,0,0,6.4801,6.4862,6.4865,6.4938,6.4981,6.5034,6.5069,6.5074,6.5121,6.5118,6.5142,6.5154,6.5223,6.5248,6.5216,6.5333,6.531,6.5318,6.5314,6.5322,6.5328,6.5321,6.5205,0,0,0,0,0,6.481,6.4859,6.491,6.497,6.4991,6.5027,6.5056,6.507,6.5114,6.5132,6.5166,6.5209,6.526,6.5292,6.5341,6.5416,6.5429,6.5448,6.5455,6.5459,6.5467,6.5512,6.5522,6.5414,6.5414,6.5414,0,0,6.4827,6.4867,6.4897,6.4971,6.5005,6.5057,6.5041,6.5095,6.5134,6.514,6.5208,6.5235,6.5284,6.5357,6.5391,6.538,6.5499,6.5466,6.5469,6.5474,6.5518,6.5528,6.5537,6.5418,6.5417,6.5417,0,0,6.4887,6.4921,6.4976,6.5012,6.5065,6.5089,6.5102,6.5156,6.5175,6.5244,6.525,6.5296,6.5382,6.5418,6.5447,6.5525,6.5527,6.554,6.5572,6.5616,6.5624,6.5632,6.5662,6.5672,6.5546,6.5546,6.5546,0,6.4902,6.4981,6.5004,6.506,6.5093,6.5102,6.5159,6.5192,6.5258,6.5281,6.5268,6.5379,6.5412,6.5496,6.5515,6.5538,6.5555,6.5534,6.5621,6.5629,6.5637,6.5666,6.5677,6.5548,6.5548,6.5548,6.5547,0,6.4998,6.5053,6.5091,6.5157,6.5194,6.525,6.5282,6.5318,6.5328,6.5354,6.5426,6.5467,6.5526,6.5546,6.5556,6.5632,6.5624,6.5616,6.5593,6.5648,6.5676,6.5687,6.555,6.5549,6.5549,6.5549,0,0,6.5059,6.514,6.5154,6.5185,6.5246,6.5289,6.5345,6.5405,6.5436,6.5481,6.5531,6.5605,6.56,6.5633,6.5647,6.5685,6.5748,6.5673,6.5675,6.5688,6.5838,6.5845,6.5857,6.5749,6.5751,6.5753,6.5834,0,6.5128,6.523,6.5255,6.5343,6.5395,6.5406,6.5456,6.5499,6.5525,6.5573,6.5601,6.5655,6.5642,6.5663,6.5701,6.5732,6.5779,6.5726,6.5797,6.5799,6.5786,6.5871,6.5878,6.5953,6.5845,6.5847,6.5848,0,6.522,6.5271,6.5365,6.5423,6.5445,6.549,6.5548,6.5593,6.5643,6.566,6.5699,6.5711,6.5772,6.5746,6.5831,6.5795,6.5826,6.5846,6.5849,6.5858,6.5828,6.5884,6.5977,6.5989,6.5865,6.5864,6.5862,0,6.5259,6.535,6.542,6.5446,6.5513,6.5545,6.5575,6.5623,6.5658,6.5709,6.5732,6.5789,6.582,6.5864,6.5891,6.5869,6.5975,6.595,6.5992,6.5991,6.6014,6.6013,6.6115,6.6031,6.6031,6.603,6.603,0,6.5334,6.5392,6.5438,6.5481,6.5547,6.5574,6.5639,6.5668,6.5712,6.5761,6.5773,6.5819,6.5851,6.5902,6.5923,6.5992,6.6005,6.6022,6.6027,6.6022,6.602,6.6043,6.6039,6.6033,6.6033,6.6032,6.6032,0,6.5389,6.5422,6.5498,6.5557,6.5574,6.562,6.567,6.5713,6.574,6.5802,6.5819,6.5861,6.5922,6.5953,6.6028,6.6042,6.6121,6.6122,6.6105,6.6108,6.6149,6.6145,6.6271,6.629,6.619,6.6191,6.6192,0,6.5435,6.548,6.5545,6.558,6.5611,6.5665,6.5703,6.5732,6.577,6.5832,6.5867,6.5929,6.598,6.6077,6.6115,6.6173,6.6177,6.6217,6.6186,6.618,6.6181,6.6179,6.6185,6.6223,6.6224,6.6224,6.6225,0,6.5515,6.553,6.5583,6.5644,6.5688,6.5736,6.5783,6.5811,6.5848,6.589,6.5954,6.5994,6.6072,6.6134,6.6196,6.6226,6.6233,6.6235,6.6248,6.6244,6.6233,6.6243,6.6123,6.6232,6.6231,6.6231,6.623,6.623,6.5569,6.5611,6.5665,6.5724,6.5764,6.5809,6.5853,6.5886,6.594,6.6007,6.6021,6.6088,6.614,6.6224,6.6257,6.631,6.6302,6.632,6.6325,6.633,6.6334,6.6224,6.6321,6.6321,6.6321,6.6321,6.6321,0,6.5653,6.5688,6.5743,6.581,6.5858,6.586,6.5914,6.5954,6.6014,6.6061,6.6112,6.6187,6.6248,6.6291,6.6353,6.6388,6.6393,6.6404,6.6403,6.641,6.6336,6.632,6.6399,6.6399,6.6399,6.6399,6.6399,6.6399,6.5702,6.5774,6.5796,6.5889,6.5924,6.5991,6.6022,6.6064,6.6103,6.6186,6.6237,6.6266,6.6313,6.6379,6.6436,6.6447,6.647,6.6482,6.6493,6.6423,6.6415,6.6407,6.6392,6.6486,6.6486,6.6564,6.6564,6.6565]}]]